Location: Santa Cristina
(46.5667°N, 11.7167°E)
Time: 03:34:26
(UTC+00:00)

Cosmos 2181 Rocket - Pass Details

Date: 21 April 2021
Orbit: 951 x 1016 km, 82.9° (Epoch: 10 May)

Event Time Altitude Azimuth Distance (km) Brightness Sun altitude
Exits shadow 00:21:33 65° 115° (ESE) 1,078 4.1 -29.5°
Maximum altitude 00:21:56 67° 94° (E) 1,066 4.1 -29.5°
Drops below altitude 10° 00:28:07 10° 14° (NNE) 2,730 7.3 -29.1°
Sets 00:30:38 0° 11° (NNE) 3,673 8.2 -29.0°
